Track STARLINK-1846 now! 10-day predictions STARLINK-1846 is classified as:
1 47136U 20088Q 21108.91667824 -.00020572 00000-0 -13660-2 0 9990 2 47136 53.0560 38.2705 0001795 69.4226 105.8224 15.06404070 1806